Location: Unspecified
(22.6800°N, 112.2000°E)
Time: 15:37:52
(UTC+08:00)

S-56A Canister/Altair - Pass Details

Date: 24 July 2021
Orbit: 632 x 2500 km, 38.9° (Epoch: 24 September)

Event Time Altitude Azimuth Distance (km) Brightness Sun altitude
Rises 00:29:15 0° 303° (WNW) 5,294 12.1 -47.3°
Reaches altitude 10° 00:33:12 10° 302° (WNW) 4,009 11.4 -47.4°
Enters shadow 00:37:05 25° 301° (WNW) 2,728 10.4 -47.4°
Maximum altitude 00:43:09 81° 217° (SW) 1,244 - -47.4°
Drops below altitude 10° 00:49:31 10° 130° (SE) 2,645 - -47.3°
Sets 00:51:40 0° 129° (SE) 3,419 - -47.3°
